Location: Bangkok
(13.7500°N, 100.5170°E)
Time: 01:41:08
(UTC+07:00)

Hubble Space Telescope - Visible Passes

Search period start: 28 July 2017 00:00
Search period end: 07 August 2017 00:00
Orbit: 538 x 541 km, 28.5° (Epoch: 26 July)

Date Brightness Start Highest point End Pass type
(mag) Time Alt. Az. Time Alt. Az. Time Alt. Az.
28 Jul 1.5 20:36:42 10° WNW 20:39:55 49° W 20:39:55 49° W visible
29 Jul 1.5 20:26:44 10° WNW 20:30:24 45° SW 20:30:24 45° SW visible
30 Jul 1.9 20:16:52 10° W 20:20:36 32° SSW 20:20:57 32° SSW visible
31 Jul 2.4 20:07:07 10° W 20:10:29 23° SSW 20:11:32 21° S visible
01 Aug 2.9 19:57:37 10° WSW 20:00:22 17° SSW 20:02:10 13° S visible
02 Aug 3.3 19:48:34 10° SW 19:50:15 12° SSW 19:51:57 10° S visible
06 Aug 3.4 05:36:28 10° SSE 05:37:47 11° SSE 05:39:05 10° SE visible
